GFSFLT2_prec_cthk_084.txt.gz
RH
21 21 21 21 20 20 20 20 21 23 28 35 40 58 67 70 73 81 99 98 93 92 86 73 65 64 55 47 53 51 56 66
22 22 22 23 23 23 21 19 22 26 30 35 37 42 55 61 78 80 82 96 96 94 90 79 67 65 61 54 50 55 57 76
25 23 24 24 25 25 22 20 23 29 34 37 40 43 51 59 71 70 77 88 98 93 92 83 73 65 69 60 48 46 49 63
28 25 25 26 29 27 24 24 27 29 32 37 44 48 54 60 67 82 82 86 94 96 91 82 78 68 70 67 53 52 50 50
33 30 27 28 35 32 27 31 35 35 33 39 46 50 60 65 70 78 71 80 86 91 92 86 78 75 77 79 62 53 51 56
38 33 32 31 35 33 29 34 36 38 36 41 44 54 66 63 60 60 72 82 74 83 87 87 81 82 78 76 63 60 59 56
42 36 35 36 41 32 32 41 43 41 41 44 41 48 58 57 53 55 59 67 68 80 83 87 90 87 88 76 70 68 59 63
46 41 40 43 39 34 34 39 46 42 38 42 43 45 51 62 54 54 63 65 68 77 86 93 94 92 90 83 72 72 55 58
59 44 42 44 38 37 40 41 41 40 34 36 39 42 47 53 59 58 61 68 76 77 92 95 97 96 95 84 73 63 59 47
53 42 44 46 40 41 42 44 42 38 34 35 36 42 47 58 60 64 68 70 68 82 94 97 98 96 93 86 80 64 52 46
45 42 46 49 47 46 44 47 45 35 31 30 33 41 44 53 58 64 66 66 73 90 94 98 99 98 93 87 78 57 48 52
44 42 46 50 48 48 46 50 49 35 24 23 31 41 46 53 62 66 75 73 82 93 97 99 97 98 93 84 71 55 48 46
45 43 47 50 48 50 46 51 49 32 25 25 31 42 50 61 66 67 78 78 87 94 98 95 96 97 90 82 68 60 51 46
47 45 48 48 50 49 49 51 46 30 22 26 39 50 58 70 75 77 76 86 94 94 98 96 98 95 87 83 75 75 65 60
49 46 48 48 52 52 53 54 48 36 26 30 46 58 68 75 78 83 85 92 99 95 98 97 94 96 87 81 82 81 71 67
52 49 51 49 53 52 53 48 42 32 25 34 52 58 75 87 92 90 90 91 96 97 98 97 94 97 93 85 82 74 69 68
50 49 48 50 52 53 56 47 39 29 29 37 50 58 67 83 86 91 93 94 97 98 98 98 96 94 95 92 82 77 71 63
47 47 48 53 52 55 57 48 37 29 33 41 50 57 65 79 87 91 94 94 95 97 99 97 96 96 94 91 90 80 80 77
47 45 50 53 54 61 60 50 39 32 35 42 51 55 62 71 85 91 96 96 97 96 98 97 96 95 93 93 90 81 79 80
49 46 49 53 58 62 63 50 42 34 37 42 49 54 59 65 76 89 97 99 99 97 97 98 97 96 94 91 84 76 76 79

GFSFLT2_prec_cthk_087.txt.gz
RH
17 16 16 18 18 19 18 18 17 19 21 23 29 32 37 47 57 63 70 88 96 97 92 82 75 71 64 52 54 62 63 59
20 19 18 19 20 20 20 19 18 19 20 24 32 31 38 44 51 59 73 78 84 98 98 92 79 76 68 63 53 55 60 63
22 21 20 20 21 22 21 21 21 20 23 27 30 33 38 41 52 68 69 73 70 79 98 95 89 82 79 65 64 66 72 59
23 24 22 22 22 24 23 23 23 23 26 27 29 35 40 44 52 62 67 72 77 81 99 96 90 81 77 72 66 64 55 61
24 26 25 22 23 25 25 26 27 26 28 30 31 35 40 47 58 64 70 79 74 81 97 94 90 81 76 70 72 69 46 50
27 26 29 25 24 25 27 30 31 30 32 33 34 35 42 51 62 65 61 60 70 76 93 91 88 82 77 71 74 70 70 51
31 30 33 31 26 27 30 33 34 35 34 34 36 38 39 45 55 62 55 57 63 72 76 88 84 88 80 76 75 75 69 51
40 34 35 38 30 29 36 36 38 39 38 36 35 35 37 44 51 60 57 54 63 68 69 75 87 90 90 80 79 76 75 58
34 54 42 41 34 33 39 40 40 41 41 37 36 32 34 40 47 50 61 58 63 69 69 73 82 94 96 91 83 77 78 65
28 41 45 43 44 38 43 42 42 44 45 41 35 31 30 37 45 50 62 65 69 71 75 82 87 95 98 96 89 84 74 66
27 35 38 38 52 46 45 43 44 48 49 46 33 26 31 35 42 51 60 69 76 77 75 76 89 97 98 97 92 87 80 66
29 36 36 46 56 50 45 46 46 50 52 43 28 24 32 36 45 50 62 73 70 77 70 83 94 98 98 95 95 88 76 69
29 38 39 44 50 48 48 49 49 50 51 42 27 23 32 40 49 56 61 70 71 73 77 91 97 98 98 97 94 89 75 59
31 39 41 43 49 52 51 48 48 50 47 40 27 26 37 53 57 64 72 72 73 75 86 93 99 97 97 96 95 89 74 59
34 42 47 45 52 54 48 50 50 51 46 37 22 28 44 55 62 71 72 78 80 77 85 93 97 97 97 92 93 86 76 64
42 48 51 48 54 49 46 50 50 50 46 31 26 34 50 57 69 80 83 84 86 85 87 96 96 96 97 95 90 83 73 74
42 47 47 48 49 45 50 53 55 52 44 33 30 39 48 56 68 75 84 91 91 91 96 98 95 96 95 95 91 87 86 81
44 42 43 46 49 47 55 58 58 57 41 32 35 44 50 58 69 79 90 89 93 95 98 97 99 97 95 96 93 89 87 84
40 41 41 48 48 49 57 60 62 59 42 33 38 44 51 56 68 77 88 95 95 96 97 99 98 96 95 95 95 90 90 88
44 48 48 50 51 54 59 61 67 62 45 39 40 45 50 56 63 74 87 96 98 98 99 99 98 98 98 97 95 91 92 88

GFSFLT2_prec_cthk_090.txt.gz
RH
22 20 18 18 16 16 16 16 16 17 18 19 20 26 29 32 36 40 49 60 72 82 85 92 92 85 69 56 52 53 56 60
22 21 19 19 18 18 18 18 17 17 18 19 20 25 29 30 35 40 47 57 67 81 83 88 95 91 79 66 57 59 63 64
24 22 22 21 21 20 20 20 19 18 19 19 21 27 31 34 37 42 48 62 72 72 75 87 98 95 85 70 66 59 70 69
27 23 25 24 23 23 23 23 20 20 21 22 22 28 31 34 42 51 55 66 66 71 72 83 97 96 91 77 74 65 69 65
30 27 27 25 25 25 26 25 22 21 24 24 25 27 30 35 43 49 54 62 67 75 78 81 95 96 95 86 78 76 75 72
28 25 28 31 27 25 28 26 25 25 27 26 26 27 31 38 44 51 60 65 68 66 68 76 94 94 95 84 80 72 67 65
28 23 29 32 32 27 29 29 28 29 31 30 29 30 33 39 44 48 59 67 63 60 71 81 91 94 93 86 76 74 71 69
23 26 36 39 36 31 29 31 30 33 35 33 33 34 33 35 39 43 52 63 60 58 63 70 83 92 94 88 80 75 74 77
20 23 35 41 45 42 33 32 32 37 38 36 35 36 34 34 35 38 46 53 62 62 68 74 75 90 96 94 90 81 79 77
21 22 26 42 53 57 46 35 33 38 39 39 39 39 37 32 32 34 42 49 61 65 68 70 77 88 93 95 95 92 84 83
18 22 24 27 50 55 64 42 38 41 39 42 44 42 38 26 24 31 38 49 62 72 77 75 76 80 85 94 97 95 89 86
18 23 25 28 51 60 72 54 44 46 43 44 47 45 38 26 25 28 37 47 60 67 80 85 82 83 89 96 99 96 93 91
21 26 29 31 54 63 74 62 52 48 48 48 50 47 36 26 26 30 37 47 63 79 79 79 81 79 94 98 99 97 95 92
28 26 30 34 49 57 57 60 55 50 45 51 52 47 36 26 28 39 48 58 64 72 76 73 75 84 97 98 98 98 96 92
34 30 29 33 44 58 58 63 60 50 48 52 54 47 32 27 33 49 58 64 72 83 76 78 79 89 95 98 97 93 94 93
31 30 29 35 43 60 56 55 54 48 50 52 53 42 32 29 41 55 62 72 81 85 80 81 77 87 96 97 95 93 92 94
32 29 32 36 49 60 58 59 53 52 54 57 51 36 29 33 42 52 58 68 78 87 85 82 80 88 93 97 95 95 92 80
40 38 36 46 61 59 57 56 51 52 56 57 50 36 31 36 43 52 66 73 82 84 89 92 86 96 93 95 94 94 92 85
50 55 51 64 64 57 54 54 51 53 58 56 47 35 32 41 49 56 67 73 80 92 91 93 92 97 97 96 94 94 91 91
54 76 68 60 55 52 57 55 55 57 57 58 46 35 40 45 51 56 63 70 83 95 97 96 98 97 97 96 96 95 92 90

GFSFLT2_prec_cthk_096.txt.gz
RH
27 27 28 29 29 29 28 26 25 23 23 24 24 26 26 28 29 31 30 34 37 39 43 48 57 67 82 82 77 78 75 68
31 30 28 28 27 26 26 25 24 23 22 23 24 26 27 28 30 30 31 34 38 39 43 50 57 63 85 91 80 81 79 75
35 32 31 29 28 26 25 25 24 25 24 23 24 25 26 27 29 31 33 36 40 41 45 51 61 68 75 82 81 85 82 80
39 36 34 31 30 29 27 25 26 26 26 24 23 24 25 27 29 33 34 38 41 43 49 60 67 73 72 74 82 87 91 78
50 48 41 38 35 35 31 29 27 27 26 25 23 24 25 27 30 33 34 38 42 46 50 54 62 65 72 76 80 85 91 83
60 49 48 46 40 37 37 33 32 28 27 26 24 25 26 27 28 33 35 39 43 45 50 56 64 67 67 72 79 82 92 94
64 64 54 51 45 43 42 40 34 32 30 26 25 27 29 30 31 33 34 40 44 44 49 58 63 65 63 72 85 90 94 95
47 60 64 61 54 51 44 41 34 35 34 31 28 28 33 32 33 33 33 39 42 46 50 51 60 65 60 69 90 93 97 95
29 36 58 65 58 47 50 48 44 40 37 34 34 30 36 36 38 36 34 39 41 45 47 47 56 62 62 78 92 92 97 96
32 32 34 43 57 51 55 56 53 51 51 40 38 34 39 38 41 39 37 36 39 42 46 49 52 60 68 81 87 95 97 96
37 37 34 37 47 55 52 61 58 53 64 49 40 38 42 41 43 43 41 36 36 41 44 49 51 60 68 74 79 91 98 96
36 42 39 37 40 52 54 58 57 56 69 58 42 44 46 47 47 47 46 39 33 37 43 47 49 61 68 77 80 89 93 95
36 38 38 41 40 47 52 54 51 50 56 66 49 50 54 51 52 50 49 38 32 37 42 42 55 62 73 82 82 90 98 97
37 38 39 37 40 42 51 50 50 48 53 67 73 58 58 56 55 52 50 37 36 35 40 46 54 64 71 83 85 85 91 91
37 38 40 39 37 36 41 45 43 48 52 61 88 82 67 61 59 53 51 40 35 33 41 54 61 66 75 85 89 85 88 89
37 38 43 42 44 39 37 33 40 39 44 64 92 94 68 62 61 55 51 38 33 34 51 60 64 69 78 84 83 81 84 80
40 43 44 44 40 46 44 35 36 34 57 65 77 81 69 67 62 54 51 38 34 39 54 64 70 77 81 84 86 83 72 81
48 48 42 40 42 50 50 41 37 45 58 67 76 68 76 67 61 56 51 37 34 41 55 65 72 79 83 86 89 86 80 77
54 49 43 40 43 53 52 49 44 54 58 73 73 71 68 60 58 58 45 33 36 42 54 64 72 76 80 83 88 87 81 78
63 54 46 44 49 55 59 55 53 62 69 74 75 67 61 55 57 59 41 35 40 49 52 61 70 74 80 84 84 83 84 86

GFSFLT2_prec_cthk_102.txt.gz
RH
28 30 32 34 35 36 36 36 33 34 34 33 32 31 32 33 32 31 31 33 37 34 38 45 47 44 46 49 57 60 73 78
32 34 35 37 38 37 38 36 35 36 36 34 33 32 33 35 33 31 29 31 35 39 39 43 47 46 47 53 56 58 65 78
38 37 39 41 41 40 41 38 37 36 36 35 35 34 33 35 35 31 30 30 31 38 43 44 49 51 55 66 64 62 64 75
43 43 45 47 43 44 41 40 39 39 38 35 36 37 37 37 38 36 34 32 32 34 39 43 52 62 58 58 64 68 71 71
51 53 54 48 46 46 44 42 42 41 41 39 36 41 39 36 39 38 37 35 35 32 36 43 44 55 64 62 64 68 66 66
54 55 57 49 53 51 46 43 39 39 37 36 37 38 42 37 36 39 38 40 38 36 37 40 43 55 64 67 68 64 66 63
47 54 49 49 50 50 46 45 41 40 37 37 39 40 42 41 39 35 41 43 38 37 36 38 43 52 60 60 63 63 64 59
39 46 54 53 52 60 52 48 45 46 42 38 39 42 44 40 38 33 40 43 38 37 35 39 44 53 57 57 59 67 63 59
32 37 42 51 52 62 59 59 53 47 45 40 39 42 43 42 41 37 36 43 42 39 39 38 44 46 53 52 55 58 57 62
29 30 34 39 48 55 61 62 65 67 62 48 43 42 42 43 44 42 41 40 42 41 41 38 42 45 54 52 54 55 57 66
24 26 28 28 32 42 49 57 54 64 61 57 55 49 43 47 49 48 46 47 46 44 43 39 39 43 50 51 51 53 59 67
17 15 17 20 22 29 34 37 45 58 60 58 52 58 47 54 54 53 50 51 50 47 47 43 38 42 45 45 54 56 62 63
20 17 16 15 17 19 25 30 34 40 63 66 56 51 51 58 60 62 57 53 52 49 49 47 41 40 44 43 60 55 60 63
23 22 21 22 22 23 27 34 32 33 45 56 61 62 56 60 61 69 63 59 57 54 52 52 47 41 42 48 56 52 58 65
30 32 28 26 29 26 26 35 40 37 35 42 46 62 62 58 65 76 73 66 63 61 56 58 52 40 42 45 58 50 60 70
38 38 38 37 35 37 34 37 44 40 41 38 43 59 63 62 68 72 77 72 67 67 62 62 57 44 45 47 57 55 66 69
43 45 47 50 50 48 42 37 45 51 55 50 47 51 58 61 57 67 92 76 70 71 65 66 62 49 40 44 58 60 70 72
51 55 57 62 62 51 45 41 44 55 58 59 52 50 56 62 66 66 68 60 62 74 69 71 64 51 42 47 65 66 74 73
61 66 63 62 56 51 47 42 45 56 63 68 65 57 60 62 60 61 59 67 70 69 65 76 58 50 42 48 64 71 79 78
69 74 65 67 64 57 51 45 47 60 71 74 73 63 59 62 61 57 64 76 80 69 69 70 59 50 46 52 65 72 78 85

GFSFLT2_prec_cthk_105.txt.gz
RH
35 30 29 30 31 33 35 36 37 34 32 33 33 33 34 35 36 36 34 33 36 38 36 35 36 40 42 46 48 51 56 65
38 35 30 32 33 34 35 37 38 37 35 35 35 35 34 35 36 36 35 36 37 33 36 38 39 43 43 46 52 58 54 64
41 40 35 33 37 37 38 39 40 38 37 37 36 36 35 34 35 36 34 36 36 40 42 38 39 42 44 48 57 61 59 58
42 43 41 38 44 45 44 42 44 40 39 38 39 39 40 40 37 36 37 35 34 35 40 42 37 44 49 52 55 61 63 71
46 51 45 45 45 48 51 48 48 44 41 42 41 43 45 45 48 43 37 38 36 34 36 37 38 40 47 47 60 63 63 68
52 54 54 55 56 54 59 54 51 48 49 46 47 44 46 49 49 49 44 40 41 40 35 37 42 42 44 44 58 73 69 66
36 52 58 61 61 63 61 57 56 47 47 44 45 49 48 49 51 54 49 47 45 44 42 41 42 46 54 54 57 65 65 63
31 35 51 59 64 67 65 58 58 53 51 43 41 40 44 45 50 52 52 52 47 48 50 51 42 43 50 57 57 60 58 57
33 32 36 45 59 66 70 63 63 62 57 51 41 43 44 47 45 46 48 55 51 50 48 50 51 46 48 50 50 51 56 54
31 32 32 35 42 53 66 65 64 68 65 55 47 40 41 44 48 47 47 48 49 51 53 50 50 47 45 48 50 54 54 54
29 30 31 32 30 33 43 54 63 68 73 68 57 54 51 43 46 44 47 50 47 50 51 52 52 49 45 44 46 55 55 51
26 26 26 28 29 27 25 32 44 51 62 63 65 64 62 57 51 49 47 55 51 50 51 52 52 51 48 41 42 48 46 44
21 19 18 17 17 18 20 22 27 36 45 57 65 70 72 69 65 60 54 54 58 56 53 54 54 52 51 42 42 44 43 47
23 22 21 20 18 18 18 20 19 31 40 39 50 55 69 79 73 71 58 58 62 65 56 58 61 58 55 48 43 43 39 45
26 27 27 28 27 25 24 23 21 21 33 38 38 44 51 74 68 82 60 59 60 69 62 59 63 60 56 54 47 43 40 44
29 31 33 36 37 35 34 32 30 26 29 47 35 37 53 53 62 88 64 62 65 74 72 67 67 59 56 55 47 47 41 45
31 34 37 41 43 43 42 39 39 41 33 49 45 42 44 49 53 65 76 72 70 79 88 78 71 64 53 55 49 48 45 49
35 37 42 44 48 50 50 51 50 52 49 52 52 47 44 51 57 61 67 78 73 70 73 87 77 67 61 59 50 45 43 50
38 38 42 47 53 55 56 58 57 54 48 48 62 57 49 52 63 58 65 80 69 63 58 95 89 76 66 62 51 44 45 54
39 40 43 52 60 62 59 60 56 48 45 43 58 63 53 63 71 63 68 79 73 77 69 77 79 80 74 65 56 43 41 59

GFSFLT2_prec_cthk_111.txt.gz
RH
23 27 31 30 29 30 32 30 29 29 30 30 30 31 32 33 32 32 31 31 30 30 31 31 31 31 30 30 37 43 47 59
24 24 29 33 31 32 32 32 31 30 31 32 30 32 33 34 34 33 33 32 32 31 31 32 31 32 33 32 35 38 41 52
26 29 29 34 33 33 36 35 33 32 32 34 32 33 33 34 32 32 33 34 33 33 31 31 31 31 31 33 34 37 39 47
33 39 35 35 37 35 35 37 37 35 34 35 35 34 35 33 33 33 34 35 36 36 34 32 30 29 29 30 32 36 42 49
30 35 39 37 43 42 41 40 40 39 38 37 38 37 36 35 34 33 34 35 37 37 36 33 30 28 27 27 28 31 40 44
36 41 46 46 46 46 46 45 45 43 42 42 43 41 40 38 36 35 34 34 35 36 36 35 33 31 28 28 30 33 35 43
37 39 47 52 56 58 56 55 53 52 53 50 49 48 47 43 38 36 35 35 36 36 36 37 36 35 35 31 31 34 37 42
36 37 39 47 53 60 61 67 64 61 62 63 64 60 56 51 42 40 38 36 38 39 38 39 37 38 38 39 38 40 42 44
38 39 39 43 46 51 56 60 65 75 70 73 76 77 67 57 46 44 41 40 42 46 45 41 41 41 41 44 45 46 44 44
40 38 36 36 42 45 46 48 57 67 66 73 79 77 85 68 56 51 47 46 44 47 50 47 46 46 43 42 43 46 46 46
41 38 35 32 30 30 39 42 42 51 56 65 74 76 79 76 69 60 57 52 51 46 48 50 50 50 46 46 45 46 45 46
42 37 35 32 28 26 24 25 28 37 40 47 54 62 65 72 77 63 64 60 53 51 47 49 51 52 54 51 49 47 49 48
41 34 33 29 27 25 24 22 23 24 25 32 38 46 55 61 65 71 70 61 59 60 58 55 59 62 64 63 53 51 53 52
39 34 32 28 25 24 23 22 20 20 18 19 21 27 35 40 40 50 62 68 74 68 72 76 70 70 76 71 69 58 51 53
39 36 32 28 25 23 22 22 21 20 18 17 14 15 19 28 34 41 41 46 61 76 92 95 93 89 85 80 76 61 54 56
41 38 32 29 27 24 25 26 24 23 22 20 19 19 20 25 30 38 46 47 56 63 82 91 89 83 93 93 78 63 56 54
39 37 32 29 28 29 29 29 30 27 26 26 26 26 26 25 29 36 44 52 62 52 52 60 68 68 71 81 84 72 65 52
34 31 29 27 27 30 30 30 31 33 31 30 30 30 29 29 31 41 36 51 71 59 56 57 57 58 67 70 69 73 68 59
36 32 30 26 26 29 32 34 34 38 38 34 33 31 32 31 34 44 48 53 78 95 77 72 67 71 63 76 80 76 70 66
41 40 37 32 28 28 33 35 35 40 40 40 42 43 42 41 41 44 51 54 66 73 80 81 70 63 60 77 77 74 77 67

GFSFLT2_prec_cthk_114.txt.gz
RH
22 21 24 30 31 32 31 30 28 28 27 27 26 27 29 30 30 29 28 28 28 28 29 30 31 33 36 35 38 43 43 40
25 24 24 26 33 33 34 34 33 31 29 29 29 28 29 31 30 29 29 28 28 30 30 30 31 30 33 37 38 44 47 45
30 29 29 29 29 35 34 35 35 35 34 32 32 30 31 32 32 31 30 29 29 30 31 31 31 31 31 34 37 41 48 47
30 31 32 33 32 35 37 35 36 36 37 36 36 34 33 33 34 33 30 30 29 31 33 34 34 31 30 30 34 38 43 49
32 40 39 37 38 35 39 40 40 40 41 40 38 38 36 34 35 35 33 31 31 30 32 34 35 34 30 29 30 32 36 43
32 41 53 45 41 44 45 47 46 43 43 43 42 41 40 38 35 37 36 33 31 30 31 33 35 35 35 33 30 32 35 40
43 42 51 55 46 52 53 50 53 53 50 48 46 45 45 45 42 42 41 38 34 32 31 33 34 36 37 38 37 33 35 39
45 48 47 50 52 58 61 62 65 62 59 59 57 53 52 52 54 52 49 43 38 34 34 34 35 37 40 39 39 41 39 39
34 39 42 46 50 50 54 67 68 65 64 71 70 69 68 63 61 58 57 53 43 39 38 41 40 40 40 43 44 44 45 45
36 40 44 43 43 46 50 51 60 66 69 70 70 72 75 78 80 79 76 64 50 48 45 43 45 45 45 48 51 50 46 45
36 40 44 42 42 39 38 48 51 50 55 62 67 74 79 76 82 84 88 81 70 57 53 52 49 49 49 55 57 57 53 49
38 42 41 42 40 36 33 33 37 43 44 45 49 57 64 69 72 75 81 88 83 85 70 59 54 52 52 56 62 62 62 55
41 44 45 44 38 34 31 29 29 27 30 34 40 42 47 52 59 63 65 68 74 83 81 82 81 73 64 64 63 61 65 59
44 45 49 47 37 34 33 30 26 24 24 25 25 28 36 40 39 39 44 54 60 70 78 86 81 87 92 88 82 76 66 61
53 49 50 48 38 34 32 30 27 24 23 23 22 21 20 22 28 31 30 35 40 48 55 67 79 79 85 95 98 95 85 73
57 54 56 47 36 33 32 30 26 25 23 22 20 21 20 18 16 18 21 23 27 29 39 50 57 63 74 78 91 97 91 86
57 53 51 42 34 28 28 29 27 25 24 24 24 23 25 25 23 22 22 26 29 30 29 37 48 60 64 78 84 88 81 83
57 58 56 44 38 32 30 30 28 26 25 25 26 27 28 30 29 28 27 28 32 33 33 33 42 50 56 63 68 70 67 65
65 67 58 46 31 30 34 32 32 30 27 26 28 30 34 34 34 33 28 29 29 34 41 45 44 52 66 69 72 75 70 59
62 51 41 35 37 31 28 32 33 33 33 33 32 36 37 38 35 34 34 34 32 37 47 55 58 67 74 88 84 81 80 73

GFSFLT2_prec_cthk_117.txt.gz
RH
25 24 25 25 30 37 36 34 33 31 28 27 26 26 28 30 32 32 31 30 30 30 31 30 30 31 33 35 36 36 36 38
28 27 27 25 26 30 37 38 37 35 32 30 29 29 29 30 32 34 33 32 32 32 32 33 32 31 32 33 35 35 36 37
29 30 30 30 30 30 34 39 40 39 37 34 33 32 30 30 31 33 35 35 34 34 34 35 36 35 33 33 34 35 34 36
28 32 34 35 35 35 36 42 44 45 44 40 37 35 35 33 33 35 36 37 37 37 37 38 39 38 35 33 33 34 35 34
32 31 34 39 42 39 37 39 46 48 48 47 44 40 39 37 35 35 37 38 39 40 39 39 39 39 38 36 35 34 34 34
29 34 40 40 45 51 45 41 46 52 52 52 50 48 46 43 38 37 37 38 38 40 41 41 40 40 40 39 37 37 36 34
23 32 39 44 50 61 60 58 51 54 59 59 57 55 53 49 45 43 41 40 41 43 43 42 42 42 41 41 41 39 38 36
23 27 31 38 46 50 53 53 58 60 62 65 65 62 58 57 55 53 50 49 47 48 48 44 43 44 44 44 44 43 41 39
28 31 29 31 39 51 55 52 52 71 72 71 74 75 70 66 66 62 59 62 58 58 57 54 48 45 46 46 47 45 44 43
30 31 33 33 36 45 52 51 50 52 68 77 75 80 78 76 75 70 66 70 78 78 78 67 56 48 49 49 49 49 47 47
30 30 31 33 36 38 38 42 49 50 48 61 73 79 81 81 83 82 78 80 87 79 87 82 66 58 52 58 57 53 53 54
34 33 34 35 37 38 37 38 40 41 43 47 54 58 66 75 79 80 83 83 92 97 94 84 78 88 78 60 64 63 57 56
41 40 39 38 38 39 38 39 36 38 35 35 38 43 46 51 58 67 71 73 77 84 84 80 79 99 90 79 82 85 79 81
53 49 46 44 41 43 47 45 39 35 35 34 32 31 31 31 36 43 48 51 54 63 70 73 75 75 80 92 97 93 84 86
64 59 56 53 50 50 47 46 43 37 35 33 32 30 28 27 27 27 31 38 41 42 46 52 56 61 68 81 86 87 88 83
71 63 56 52 53 52 50 46 32 33 32 29 28 28 28 27 26 24 22 22 23 29 35 37 39 46 48 59 67 71 73 76
74 67 59 55 51 50 48 47 36 30 28 27 25 25 27 28 28 25 23 21 19 17 19 25 26 27 35 40 46 53 62 67
75 68 62 55 56 56 58 42 44 32 27 26 23 22 23 27 31 32 31 28 27 25 24 24 30 32 30 34 44 47 51 54
71 69 65 61 56 54 52 49 39 40 36 28 26 22 23 25 31 34 35 35 34 33 31 29 32 37 39 37 38 42 53 56
73 74 70 65 58 50 43 42 39 45 37 36 33 32 29 27 29 35 38 36 36 37 35 32 31 36 41 44 48 56 56 59

GFSFLT2_prec_cthk_120.txt.gz
RH
28 27 28 29 31 31 37 40 38 37 35 33 32 31 32 32 33 34 33 31 28 28 28 30 31 33 33 32 31 30 32 35
30 29 28 28 29 30 31 37 43 42 41 40 37 35 36 34 36 36 35 34 32 30 29 30 32 34 34 34 32 32 31 33
29 32 33 32 31 31 33 33 37 44 45 45 43 40 39 39 38 38 38 38 36 34 33 31 32 34 36 36 34 32 30 31
31 32 35 36 36 36 34 35 37 40 47 48 47 45 44 44 41 41 41 42 41 40 38 36 35 34 37 38 36 34 31 29
19 24 31 38 42 41 40 38 38 42 44 50 52 50 49 48 46 44 43 44 44 44 41 39 38 37 37 39 38 37 35 32
19 20 20 27 37 44 46 44 44 40 46 50 54 56 54 53 52 50 50 48 46 46 44 42 42 42 41 41 41 39 37 35
20 21 23 26 25 33 42 49 54 53 49 54 57 59 60 61 59 59 57 55 53 52 50 47 44 45 44 44 44 43 42 38
22 21 27 28 28 28 35 41 46 57 60 61 60 61 62 62 62 63 63 63 63 61 54 52 50 50 50 49 47 47 45 44
23 25 28 29 32 32 36 37 43 49 55 59 68 66 68 68 67 66 66 67 71 70 68 67 60 57 58 57 53 53 51 48
32 32 34 35 37 34 34 40 43 47 48 52 60 69 76 76 75 75 75 74 74 73 75 77 74 70 72 67 60 55 54 52
39 41 40 41 40 38 39 42 44 46 46 46 46 50 60 74 78 82 84 88 86 84 91 89 89 74 72 77 76 66 63 61
39 43 46 43 42 39 37 38 38 37 38 41 44 46 47 54 68 75 78 83 86 90 93 91 96 96 82 80 85 75 74 78
42 43 48 48 49 44 42 41 39 36 36 37 38 36 40 43 50 59 65 69 76 83 87 92 95 96 97 91 89 83 78 79
46 49 54 52 52 53 49 45 42 45 42 39 37 35 35 37 37 37 40 45 54 61 68 76 80 82 85 96 93 78 73 72
52 55 62 65 66 65 60 57 54 50 52 49 39 38 39 37 36 35 34 33 32 35 44 51 54 55 64 76 79 76 82 84
67 61 67 79 71 68 62 56 54 51 50 46 38 37 39 38 36 35 34 32 29 30 30 33 41 47 47 47 55 61 65 65
72 76 77 79 74 72 65 58 54 55 53 50 39 37 33 38 35 34 33 32 30 28 26 27 26 29 34 38 36 38 47 51
84 78 85 83 81 72 68 65 62 58 55 53 42 42 34 30 35 34 32 33 32 32 30 27 26 24 24 31 33 33 30 35
80 81 83 79 79 72 70 67 62 55 50 51 46 39 44 30 30 31 31 32 32 33 32 31 30 31 29 30 33 36 39 36
87 83 85 84 79 76 75 69 59 51 46 42 42 43 42 44 30 30 30 29 30 34 33 33 34 33 33 33 36 38 42 45

GFSFLT2_prec_cthk_126.txt.gz
RH
32 32 34 34 35 38 39 39 43 44 43 46 46 42 39 38 38 38 38 36 34 32 31 31 31 31 31 32 32 33 36 40
32 31 32 34 34 36 38 40 41 42 46 46 48 49 47 43 41 41 40 41 39 37 36 35 34 34 34 33 33 34 34 42
30 32 33 34 34 35 36 38 39 41 42 44 49 49 50 49 47 45 44 44 44 42 40 39 39 38 38 36 35 36 40 41
29 28 27 27 31 33 35 36 36 38 39 42 44 50 57 57 56 51 50 49 48 47 47 45 44 45 43 39 37 41 42 45
24 21 20 20 25 28 31 37 40 41 41 43 46 49 53 58 61 59 54 53 52 52 50 53 53 57 58 50 44 43 45 45
21 20 20 22 27 29 33 34 35 37 40 42 47 50 52 56 61 63 65 63 59 59 63 62 59 56 60 59 52 49 48 47
20 20 21 24 30 34 33 34 35 39 41 44 46 48 52 57 57 62 69 71 68 67 68 73 71 67 64 63 60 52 49 50
15 16 18 20 30 37 39 41 42 38 42 46 47 48 49 49 61 66 67 71 74 78 73 72 75 75 70 67 67 63 61 56
14 15 16 20 28 34 35 34 33 33 37 41 47 48 52 56 56 61 72 76 79 80 78 82 82 79 75 73 71 66 67 67
21 22 24 27 29 35 39 37 36 38 39 38 42 46 51 53 50 51 51 56 71 84 84 85 83 81 78 79 77 76 68 67
27 26 26 28 34 39 42 43 42 41 41 41 42 44 47 51 52 52 51 52 60 65 72 88 93 92 88 84 79 72 71 72
33 33 32 32 34 39 43 44 46 47 48 47 47 47 46 46 45 43 43 45 47 52 65 73 85 92 92 91 88 88 85 93
39 39 39 40 37 40 45 50 54 53 51 50 49 46 40 37 37 37 36 36 40 44 48 57 67 77 88 86 92 89 91 88
37 36 37 38 42 47 45 48 51 54 57 57 55 52 46 42 39 37 36 36 34 31 34 42 47 57 72 82 83 83 80 93
39 38 39 42 45 46 53 50 51 53 55 58 61 58 54 49 44 42 42 41 36 34 33 32 40 43 51 63 69 68 67 64
46 46 48 47 48 49 51 50 63 52 56 58 61 61 58 50 50 49 49 45 39 36 36 35 35 37 44 45 56 62 63 58
52 56 54 54 59 63 62 63 68 74 62 62 62 55 57 60 60 61 60 54 48 41 37 38 39 39 42 46 47 52 60 65
54 57 59 62 65 75 78 76 70 76 74 74 70 70 68 66 62 64 59 56 55 47 48 43 42 48 50 48 47 49 50 55
54 56 58 62 67 75 81 84 82 83 83 91 89 83 79 77 69 56 52 45 46 50 48 45 42 44 50 52 52 51 49 44
45 47 54 58 65 67 67 66 71 80 85 87 90 92 90 79 59 53 42 43 49 52 52 50 46 44 40 51 48 48 50 46

GFSFLT2_prec_cthk_132.txt.gz
RH
39 38 35 36 37 36 36 39 40 41 44 46 47 47 47 48 48 48 46 42 39 35 32 31 31 32 32 33 32 32 32 38
32 36 39 39 37 37 36 37 38 40 42 44 46 48 49 51 51 51 52 51 48 45 42 40 37 33 33 33 33 34 33 33
32 31 35 39 41 41 40 39 39 38 38 40 44 46 46 48 50 51 53 55 55 52 49 46 45 42 38 36 35 34 35 35
33 34 34 34 38 47 47 43 37 33 32 33 34 38 40 44 49 54 58 60 59 58 57 53 49 46 44 41 37 37 36 36
26 28 29 30 30 34 39 51 47 39 35 31 30 34 38 44 51 56 63 74 72 65 62 58 56 52 48 46 42 40 41 39
22 19 19 20 22 27 29 31 36 45 46 70 58 46 42 48 50 50 57 65 69 79 78 69 63 57 56 56 56 57 56 48
14 14 14 17 19 22 27 34 37 40 49 68 60 50 58 61 62 63 68 71 71 74 76 71 73 69 68 63 61 65 69 70
17 16 16 16 16 19 25 29 32 38 37 38 42 41 44 46 47 50 51 51 58 68 75 85 86 83 78 68 65 64 63 68
23 21 22 21 22 21 25 30 35 40 41 38 41 45 53 55 50 46 42 43 46 53 69 80 84 85 85 95 91 81 76 71
27 25 25 25 25 26 26 28 31 36 40 41 46 50 52 53 49 43 42 43 43 46 52 56 65 71 73 70 98 97 98 94
27 26 25 26 27 28 29 30 33 35 38 40 56 51 52 55 51 46 43 43 42 43 44 45 45 47 53 65 72 73 63 89
29 28 27 26 27 28 31 32 34 35 39 43 46 51 55 53 54 51 49 49 45 44 43 41 38 36 35 35 41 46 54 60
30 30 29 28 28 28 28 30 34 35 36 36 45 46 44 51 49 50 49 51 53 48 40 34 33 35 35 32 30 35 39 49
32 32 32 30 30 32 33 33 35 35 36 36 37 39 42 43 44 46 46 47 48 47 40 36 35 35 36 37 33 29 33 37
34 33 33 33 34 35 34 35 37 37 38 38 41 40 39 41 43 42 44 46 47 48 43 37 36 39 41 46 45 40 30 29
34 33 32 32 34 35 36 39 41 42 42 43 45 45 44 43 44 47 48 50 50 53 49 45 43 44 46 51 50 49 46 35
33 32 30 32 33 33 35 39 42 44 47 51 51 50 52 52 57 56 52 54 56 53 54 52 49 50 51 54 56 55 51 50
30 28 28 27 28 28 28 31 37 42 42 44 50 56 63 65 69 70 74 73 72 68 63 57 55 58 57 58 60 56 56 56
30 31 31 30 29 29 29 30 32 35 40 45 50 53 59 64 71 70 74 81 79 75 73 71 70 66 70 67 62 57 58 59
31 34 34 31 32 33 33 34 36 36 36 38 45 50 59 70 69 70 69 73 77 80 81 76 77 74 75 67 56 55 53 56

GFSFLT2_prec_cthk_135.txt.gz
RH
33 34 35 37 37 35 35 36 36 37 39 40 42 45 46 47 46 47 48 46 44 38 34 31 30 31 32 30 30 30 30 35
32 34 35 36 36 38 38 37 36 37 38 40 43 45 47 48 48 47 48 50 49 49 46 39 36 36 34 33 33 32 31 32
32 32 36 39 38 37 42 45 40 35 35 37 37 39 43 47 48 51 53 53 54 54 52 51 46 41 38 37 35 34 34 35
30 31 31 30 35 38 40 39 39 45 49 40 33 31 33 35 37 39 43 50 57 60 62 59 56 53 47 45 42 39 38 36
25 24 25 24 26 29 31 33 32 35 39 51 61 46 39 36 40 41 45 52 53 63 67 67 67 62 57 54 51 49 46 44
18 18 20 21 22 24 28 32 35 35 34 37 42 49 60 62 53 54 58 55 65 68 67 70 74 74 75 70 67 62 56 52
13 12 12 12 12 17 23 32 38 43 45 45 44 45 52 57 52 48 58 64 69 68 68 69 76 83 90 82 78 76 73 71
20 19 17 16 15 15 17 23 31 40 46 52 55 54 59 56 48 41 41 43 48 51 53 58 65 71 76 86 89 91 93 96
22 23 23 22 21 22 22 23 25 28 34 41 50 54 50 50 47 46 46 47 47 47 43 42 45 54 64 76 85 92 93 88
25 25 25 24 24 24 24 24 25 27 29 33 37 43 45 40 45 50 52 49 46 41 39 36 39 43 48 54 65 76 79 75
25 25 24 25 25 25 26 27 28 28 28 31 32 37 41 43 47 48 49 51 52 47 44 40 37 38 39 39 39 42 50 49
25 24 24 24 24 24 25 25 26 27 27 29 29 31 34 37 51 50 65 51 52 52 51 49 45 39 35 29 26 27 31 35
26 25 25 25 24 25 26 28 27 26 26 26 27 30 32 34 38 44 43 45 55 45 47 46 45 37 32 28 27 26 27 31
28 28 28 27 26 26 28 29 29 29 28 28 27 27 29 31 34 36 36 38 40 42 45 46 45 42 38 33 30 29 33 36
31 29 27 26 26 26 28 29 30 30 30 31 32 33 34 34 34 35 36 35 36 38 43 46 49 48 46 44 40 39 34 32
30 27 23 21 21 21 22 24 26 28 30 33 35 37 40 44 43 44 45 45 41 40 39 44 47 50 51 52 50 47 45 38
30 26 22 19 17 17 18 18 20 21 23 25 29 33 35 38 42 50 53 54 54 54 51 52 53 54 53 53 55 54 49 48
28 26 23 21 21 20 19 20 21 21 22 24 26 29 32 35 39 43 46 51 60 67 69 68 68 66 64 59 57 58 61 61
30 28 26 24 23 22 22 23 24 26 27 27 28 29 31 34 37 42 48 53 53 63 72 71 75 79 80 75 69 65 63 70
30 29 28 27 27 28 29 29 31 32 34 35 36 35 34 34 36 40 42 55 64 67 70 76 77 82 81 80 78 75 70 70

GFSFLT2_prec_cthk_138.txt.gz
RH
34 35 38 39 40 38 40 42 42 41 40 40 40 41 42 43 43 43 43 45 46 44 41 38 36 33 33 35 37 37 37 37
36 37 37 38 39 39 40 41 41 41 40 39 39 40 41 42 42 44 46 47 47 49 49 48 45 42 39 38 38 39 40 39
35 36 37 39 39 37 38 40 40 42 39 40 41 42 41 41 41 42 42 43 44 47 52 56 59 60 56 50 47 42 41 40
24 27 28 29 30 33 33 35 35 36 36 38 42 46 46 39 36 36 34 33 33 36 45 53 58 63 67 67 61 55 52 47
23 22 22 22 23 24 27 30 30 30 32 34 38 40 46 48 46 44 47 44 42 46 51 55 60 68 72 70 73 64 59 58
16 14 15 17 19 21 23 27 32 33 32 33 36 39 45 46 53 57 54 61 50 53 55 60 64 73 78 79 83 81 76 69
17 16 16 14 14 14 16 18 24 32 38 38 40 44 47 50 49 52 57 58 53 48 52 55 57 63 68 74 80 80 75 76
19 19 18 19 20 21 20 20 21 24 29 36 41 43 46 48 52 52 52 52 46 43 42 44 47 51 55 62 70 76 76 78
21 22 23 23 24 24 26 26 25 25 25 27 34 42 45 46 46 46 46 45 42 40 42 41 44 47 49 50 50 54 62 76
22 23 23 24 24 25 24 25 25 26 27 27 28 29 32 38 43 45 43 40 35 43 46 45 43 42 41 41 42 45 43 51
22 23 24 24 25 25 26 25 24 24 24 26 27 28 30 32 35 39 42 40 36 42 47 46 46 45 42 40 39 39 36 34
22 23 23 24 25 26 25 25 24 23 23 23 24 25 27 28 28 29 31 38 39 46 44 50 48 46 44 41 39 35 31 29
22 23 24 25 26 27 28 27 26 25 24 23 23 23 23 23 24 28 29 31 30 33 36 35 35 41 43 42 39 35 33 31
23 25 25 25 26 26 28 28 27 26 25 23 23 24 25 25 25 26 27 29 29 31 34 35 32 32 37 39 40 42 37 36
24 23 22 22 23 24 24 25 25 25 24 22 21 22 24 26 28 30 31 33 34 34 35 36 35 36 39 40 46 43 42 44
23 21 20 18 18 17 17 17 18 17 18 18 18 19 20 21 23 26 30 34 38 40 42 44 41 41 45 49 46 47 44 40
25 21 20 19 18 18 18 18 18 18 18 18 17 17 18 19 22 24 26 29 31 35 42 49 52 54 53 54 55 52 51 48
26 23 23 22 22 21 21 21 21 20 21 21 21 21 22 22 23 24 25 28 32 35 36 40 49 55 59 63 62 62 59 51
30 26 26 26 26 25 25 25 25 25 26 26 27 28 28 29 31 31 31 31 34 35 42 44 43 48 54 62 70 73 75 69
36 32 30 31 31 31 30 29 30 30 30 32 33 35 35 36 37 39 38 38 39 40 45 53 57 59 63 73 74 79 79 84

GFSFLT2_prec_cthk_141.txt.gz
RH
38 39 39 41 41 41 41 41 41 41 41 42 43 44 45 46 48 48 48 49 50 49 46 44 42 39 36 35 34 35 38 39
38 38 39 40 41 40 40 41 41 40 40 42 42 41 43 44 46 48 50 51 52 53 53 54 52 50 50 47 42 38 36 36
34 36 37 38 39 39 39 39 41 39 38 37 37 39 40 44 45 44 43 43 45 47 48 52 56 59 59 64 63 60 54 47
23 23 23 24 25 28 32 32 31 33 34 34 34 34 35 36 38 43 42 39 41 40 40 45 48 52 57 63 69 75 71 66
22 23 23 22 22 23 25 28 30 32 33 34 35 35 34 35 39 41 42 43 42 45 45 53 56 54 61 71 74 74 76 76
16 15 15 15 16 17 20 22 25 29 32 33 36 39 40 39 40 42 44 48 52 57 57 57 54 54 56 61 69 77 75 76
17 16 15 15 17 17 17 17 18 22 28 31 34 36 39 40 43 44 46 50 47 48 56 57 56 53 54 59 63 69 74 80
19 18 16 17 19 19 19 19 21 23 24 27 33 38 38 40 44 43 45 47 49 49 48 50 48 43 40 41 42 45 51 59
21 19 19 20 22 22 22 22 23 24 24 25 26 28 32 38 43 38 42 44 44 44 46 45 42 42 40 38 37 37 40 46
21 20 21 22 23 23 22 22 22 22 23 23 24 24 25 26 30 32 35 40 37 34 36 35 31 31 39 42 43 40 39 39
23 21 21 21 22 22 22 22 22 22 22 22 22 23 24 24 24 24 25 25 27 28 30 30 28 27 30 38 41 44 43 42
24 21 21 21 22 22 22 23 23 23 23 22 22 22 21 21 22 22 22 22 21 21 22 24 23 25 25 31 33 44 48 44
25 21 21 22 22 23 24 24 23 23 23 22 22 22 21 21 20 20 20 20 20 21 23 24 24 24 22 21 24 27 38 43
28 22 22 23 23 24 23 23 22 21 19 18 18 18 18 19 20 22 22 22 22 22 22 22 23 26 27 27 26 27 33 42
29 24 24 22 21 21 20 20 21 20 18 16 15 15 15 15 16 17 18 20 23 25 25 26 27 30 33 35 38 36 35 37
32 28 25 21 19 19 20 20 19 17 16 16 16 16 16 16 16 16 17 18 20 21 22 25 29 34 39 43 43 43 44 41
35 31 27 22 21 21 20 19 19 19 20 20 20 20 20 20 19 19 20 20 20 22 25 28 28 30 33 42 49 51 51 50
38 34 30 27 26 24 23 22 22 23 23 24 24 24 25 25 26 26 27 27 27 28 29 32 32 34 35 38 43 50 57 60
41 36 34 34 33 31 29 28 28 27 27 28 29 29 29 30 31 32 33 33 34 36 37 38 39 38 40 46 48 50 52 55
44 38 38 39 38 37 35 35 33 33 34 35 35 35 36 37 37 36 37 39 40 42 48 48 49 47 48 50 55 59 61 64

GFSFLT2_prec_cthk_147.txt.gz
RH
44 47 48 47 45 44 43 43 43 44 44 44 45 45 45 47 47 48 47 47 48 50 52 53 52 53 54 56 55 52 48 44
37 37 37 38 38 40 42 43 44 44 44 45 45 45 45 45 46 46 48 49 51 51 51 49 48 48 50 52 53 56 59 58
31 31 31 31 31 31 32 34 35 36 37 38 39 39 39 40 39 38 39 40 42 49 50 46 45 46 46 48 49 52 57 60
26 25 22 20 21 22 24 26 28 30 31 33 33 33 34 35 36 35 36 36 38 41 42 49 52 54 52 51 50 56 59 59
24 22 21 17 14 13 14 16 21 26 28 31 33 36 37 37 38 38 39 39 40 40 40 42 45 45 44 49 56 59 65 61
25 23 18 17 17 15 14 14 16 19 22 28 33 36 36 37 39 41 41 41 43 42 38 41 43 44 46 50 51 52 59 52
23 20 20 19 18 19 18 16 16 16 18 22 26 29 33 37 42 42 41 42 42 42 41 40 40 44 46 49 48 47 47 47
21 22 22 22 21 20 20 19 19 19 19 20 22 23 25 26 30 35 37 34 34 34 36 33 33 34 36 38 37 33 34 37
21 24 24 26 24 22 20 20 21 21 22 22 23 23 24 25 28 29 30 30 32 29 32 33 28 27 29 31 31 28 26 24
24 28 29 28 26 23 22 21 22 21 22 22 22 21 22 22 22 22 22 23 23 23 23 22 21 21 20 21 22 23 22 20
28 30 31 31 29 23 22 22 22 21 21 21 20 20 20 20 19 19 19 19 19 18 18 17 16 16 16 16 16 18 18 19
33 33 32 33 32 25 24 23 22 22 22 21 20 19 19 18 17 17 17 16 16 15 14 14 13 12 13 13 14 14 16 17
36 35 33 35 34 30 27 25 23 21 19 17 16 15 15 15 14 14 14 13 12 11 11 11 12 12 12 13 15 16 17 19
38 36 35 37 35 32 30 27 22 19 18 17 16 15 15 14 14 14 13 13 12 12 12 12 12 11 12 14 19 18 20 22
39 36 35 37 36 34 32 28 24 21 19 18 18 17 17 17 17 16 16 16 16 16 15 15 14 14 16 18 23 25 22 26
39 37 36 38 36 34 32 31 27 24 23 22 21 21 21 20 20 19 19 19 20 20 19 19 18 19 21 23 26 26 27 26
40 39 39 39 36 33 31 32 31 29 29 29 28 28 27 26 24 24 24 24 24 24 23 23 23 24 26 26 26 27 29 31
40 41 42 40 36 34 33 35 35 34 34 34 34 34 33 31 30 30 30 30 30 29 28 27 27 28 29 29 30 32 35 35
47 46 44 41 37 35 36 39 40 38 39 39 39 38 36 34 33 33 32 32 30 29 28 27 27 28 29 30 33 37 42 47
49 47 45 41 38 37 40 44 45 44 45 45 43 42 40 38 36 36 35 30 27 26 26 25 25 26 27 30 35 38 46 50

GFSFLT2_prec_cthk_153.txt.gz
RH
41 43 45 48 49 49 52 52 50 46 45 44 45 46 45 44 43 44 43 44 45 46 47 49 49 48 47 46 46 46 48 57
46 45 47 49 49 47 42 40 41 41 41 41 40 39 39 39 40 40 41 42 42 42 43 43 47 50 47 44 42 42 44 48
39 41 41 39 39 38 37 37 37 38 37 37 39 40 41 38 40 40 40 40 40 40 40 40 40 42 43 47 52 53 55 55
35 35 35 37 38 33 33 32 33 32 31 32 33 36 38 39 41 42 41 40 40 41 41 42 42 42 50 47 49 55 62 61
31 32 32 30 31 31 28 28 27 26 26 28 28 29 35 38 40 42 44 44 42 41 42 43 43 45 42 50 43 49 55 55
32 30 29 25 23 24 25 26 26 27 23 25 27 31 31 32 37 41 44 45 45 44 43 43 44 45 45 46 44 43 47 49
32 30 27 23 20 19 19 19 21 21 23 25 29 30 30 31 34 40 42 43 45 45 45 47 46 44 43 42 43 42 41 42
33 30 25 22 18 17 16 15 18 23 24 23 26 27 26 30 32 35 37 38 38 38 38 38 38 39 36 35 34 33 33 30
33 30 26 21 17 17 17 17 22 26 26 26 24 25 26 28 30 31 33 31 34 32 31 33 32 33 29 28 30 28 25 24
35 31 26 20 18 19 21 23 25 26 26 26 23 23 24 26 27 26 26 26 26 26 25 24 25 25 23 21 20 20 20 17
35 29 25 21 20 23 26 27 27 27 27 26 23 22 21 21 21 21 21 21 20 20 20 18 20 20 18 17 17 18 18 23
33 29 26 24 23 25 27 30 30 30 28 28 26 23 21 20 19 19 19 18 16 15 14 14 16 14 12 16 18 18 24 26
32 32 28 27 27 30 32 35 35 32 30 29 27 23 20 17 16 15 15 15 14 13 13 18 19 13 17 17 18 23 21 25
34 37 34 31 33 36 36 38 39 36 31 27 25 23 21 20 18 17 16 18 16 16 16 19 21 15 15 18 24 29 32 31
38 39 38 37 37 38 39 41 39 35 30 27 26 25 24 22 20 20 19 20 20 18 18 18 24 24 19 21 25 27 29 31
40 41 42 42 42 40 40 40 42 39 35 30 29 29 28 26 25 24 24 24 23 23 23 25 28 28 29 29 29 28 28 27
46 47 46 44 45 42 41 43 44 41 38 32 31 33 33 31 30 29 28 27 27 26 26 26 30 32 32 31 29 31 28 29
48 48 47 46 47 46 44 45 46 44 42 38 35 37 39 38 36 34 32 31 30 29 30 31 33 32 34 30 30 31 31 30
52 51 51 52 50 49 48 48 49 46 46 46 44 43 43 42 41 40 38 36 35 34 33 32 32 33 30 33 29 26 26 26
55 53 50 51 54 53 53 52 52 50 49 49 48 47 46 46 48 47 44 43 41 36 35 35 31 30 27 25 23 18 17 17

GFSFLT2_prec_cthk_159.txt.gz
RH
29 28 29 30 32 35 38 39 39 40 41 42 40 38 36 34 33 33 33 32 32 36 40 42 44 48 51 50 48 46 46 45
28 29 30 31 34 36 37 39 41 43 44 41 39 38 38 36 35 35 36 37 36 36 37 38 39 39 41 44 47 48 48 50
28 28 31 34 35 36 38 40 42 42 38 37 35 35 35 35 35 37 37 37 39 39 39 39 39 39 38 38 39 41 43 47
29 28 32 36 37 38 38 37 34 32 32 33 32 30 31 33 36 38 40 43 41 41 42 43 42 42 41 41 42 46 52 59
33 31 31 33 36 33 31 29 28 27 24 21 21 26 28 31 35 39 41 42 44 44 43 43 45 46 43 47 47 48 51 50
33 33 32 31 30 30 27 25 22 20 18 18 21 24 25 28 36 41 42 43 43 45 44 45 45 48 48 47 46 48 49 48
34 34 34 31 32 30 31 28 22 19 18 16 16 18 18 27 33 33 42 40 40 42 43 45 46 47 46 47 48 51 52 56
36 35 33 32 32 32 31 28 22 19 17 16 14 18 21 26 32 33 35 37 37 39 43 47 47 47 47 47 43 44 48 49
35 34 34 32 32 31 29 26 23 22 19 16 15 20 24 28 33 32 30 30 32 33 34 36 37 39 38 36 35 36 35 37
38 38 36 34 34 33 31 28 26 24 20 17 16 20 25 30 31 30 31 28 30 31 32 33 33 32 30 31 30 31 30 27
44 40 39 38 36 35 33 32 26 25 21 19 18 22 27 29 30 29 30 27 27 27 25 26 25 24 25 23 22 22 24 24
45 43 43 43 40 39 37 33 29 24 22 21 22 26 28 29 32 28 28 26 25 23 22 22 20 19 17 16 19 23 23 25
42 46 46 46 46 45 40 36 31 27 25 26 26 28 29 30 32 30 26 26 24 22 20 18 17 16 16 19 22 26 29 29
48 46 44 44 45 44 42 38 35 33 33 31 29 32 33 32 32 30 26 23 22 21 20 20 20 18 18 22 28 33 37 37
50 49 49 47 46 42 42 41 40 40 40 36 34 34 34 32 30 30 29 26 24 24 23 22 22 21 23 26 34 36 41 44
54 54 55 56 51 46 42 41 44 45 44 41 38 36 34 32 32 31 31 30 29 27 28 28 27 26 25 26 29 33 40 42
58 62 62 62 59 55 51 49 47 46 47 45 41 37 35 35 34 34 33 34 34 33 30 31 32 32 32 30 28 30 38 40
62 66 66 66 61 58 55 54 54 54 48 48 46 41 38 38 39 39 38 38 39 38 37 35 35 34 33 33 34 33 34 34
68 67 63 62 60 57 58 60 60 58 56 52 52 48 45 43 44 43 43 42 42 42 42 41 38 36 35 37 38 37 37 36
63 59 57 54 54 58 61 64 66 62 61 58 59 56 51 48 48 48 48 49 49 48 47 48 46 42 40 42 43 41 40 34